Regional Weather Roundup
Issued by NWS Glasgow, MT

Home | Current Version | Previous Version | Text Only | Print | Product List | Glossary On
Versions: 1 2 3 4 5 6 7 8 9 10 11 12 13 14 15 16 17 18 19 20 21 22 23 24 25 26 27 28 29 30 31 32 33 34 35 36 37 38 39 40 41 42 43 44 45 46 47 48 49 50
000
ASUS45 KGGW 230915
RWRGGW
HOURLY REGIONAL WEATHER ROUNDUP FOR NORTHEAST MONTANA
NATIONAL WEATHER SERVICE GLASGOW MONTANA
300 AM MDT TUE MAY 23 2017

NOTE: "FAIR" INDICATES FEW OR NO CLOUDS BELOW 12,000 FEET WITH NO
SIGNIFICANT WEATHER AND/OR OBSTRUCTIONS TO VISISBILITY.

NORTHEAST MONTANA


CITY           SKY/WX    TMP DP  RH WIND       PRES   REMARKS
GLASGOW        CLEAR     43  32  65 NW5       30.17S
PLENTYWOOD       N/A     43  30  61 E3          N/A
WOLF POINT     CLEAR     42  34  73 SW7       30.17S
JORDAN           N/A     36  32  85 NW7       30.19S
WINNETT          N/A     34  32  92 S2          N/A
SIDNEY         CLEAR     40  33  76 NW3       30.17R
GLENDIVE       CLEAR     47  33  58 NW9       30.17S
MALTA            N/A     39  33  79 SW1         N/A
SCOBEY           N/A     38  28  68 CALM      30.14S
OPHEIM           N/A     52  27  37 N1        30.00F

FORT PECK REPORTS


CITY           SKY/WX    TMP DP  RH WIND       PRES   REMARKS
FORT PECK        N/A     47  33  58 W3          N/A
THE PINES        N/A     47  33  58 CALM        N/A

SOUTHEAST MONTANA


CITY           SKY/WX    TMP DP  RH WIND       PRES   REMARKS
BILLINGS       CLEAR     50  37  61 SW5       30.22S
MILES CITY     CLEAR     39  34  82 NW9       30.18R
BAKER          CLOUDY    45  37  73 W3        30.17R
LIVINGSTON     CLEAR     38  35  89 NW3       30.24F

CENTRAL MONTANA


CITY           SKY/WX    TMP DP  RH WIND       PRES   REMARKS
HAVRE          PTCLDY    50  32  50 SW5       30.15F
LEWISTOWN      CLEAR     38  32  79 S6        30.22F
GREAT FALLS    CLEAR     48  39  71 S5        30.17F
CUT BANK       CLEAR     47  34  60 S5        30.16F
HELENA         CLEAR     48  42  80 CALM      30.20S
BUTTE          CLEAR     40  34  79 E3        30.27F
BOZEMAN        CLEAR     40  35  83 SE7       30.23F

WESTERN MONTANA


CITY           SKY/WX    TMP DP  RH WIND       PRES   REMARKS
MISSOULA       CLEAR     49  40  71 CALM      30.18R
KALISPELL      NOT AVBL

NORTH DAKOTA


CITY           SKY/WX    TMP DP  RH WIND       PRES   REMARKS
WILLISTON      CLEAR     40  35  83 CALM      30.16S
DICKINSON      CLEAR     35  31  85 NW8       30.12S
MINOT          CLEAR     46  36  68 NW12      30.10S
BISMARCK       CLOUDY    52  39  61 NW13      30.05S

SOUTHERN SASKATCHEWAN


CITY           SKY/WX    TMP DP  RH WIND       PRES   REMARKS
REGINA         CLEAR     43  30  61 SE9       30.15S
ESTEVAN        PTCLDY    39  36  87 W5        30.16R
SWIFT CURRENT  CLEAR     45  30  57 S10       30.15F




USA.gov is the U.S. government's official web portal to all federal, state and local government web resources and services.